1365984032144,0.827367
1365984092144,0.832300
1365984152144,0.821711
1365984212144,0.831354
1365984272144,0.828034
1365984332144,0.820916
1365984392144,0.831855
1365984452144,0.833566
1365984512144,0.833834
1365984572144,0.837960
1365984632144,0.829629
1365984692144,0.826279
1365984752144,0.834216
1365984812144,0.825594
1365984872144,0.829560
1365984932144,0.831183
1365984992144,0.834140
1365985052144,0.830440
1365985112144,0.829721
1365985172144,0.830821
1365985232144,0.825909
1365985292144,0.828350
1365985352144,0.828553
1365985412144,0.826780
1365985472144,0.827501
1365985532144,0.822919
1365985592144,0.831604
1365985652144,0.826235
1365985712144,0.830353
1365985772144,0.839591
1365985832144,0.826213
1365985892144,0.829380
1365985952144,0.825029
1365986012144,0.829058
1365986072144,0.821974
1365986132144,0.829262
1365986192144,0.824970
1365986252144,0.822719
1365986312144,0.827048
1365986372144,0.823671
1365986432144,0.825956
1365986492144,0.824840
1365986552144,0.822772
1365986612144,0.822812
1365986672144,0.825181
1365986732144,0.828511
1365986792144,0.829764
1365986852144,0.830273
1365986912144,0.823013
1365986972144,0.835929
1365987032144,0.822195
1365987092144,0.819652
1365987152144,0.832566
1365987212144,0.823061
1365987272144,0.829073
1365987332144,0.823212
1365987392144,0.820234
1365987452144,0.825794
1365987512144,0.825056
1365987572144,0.832251
1365987632156,0.827234
1365987692156,0.826333
1365987752156,0.824001
1365987812156,0.823428
1365987872156,0.828625
1365987932156,0.831217
1365987992156,0.828626
1365988052156,0.824998
1365988112156,0.826356
1365988172156,0.860541
1365988232156,0.833653
1365988292156,0.828737
1365988832156,0.838846
1365988892156,0.827562
1365988952156,0.828996
1365989012156,0.830358
1365989072156,0.838366
1365989132156,0.828389
1365989192156,0.832265
1365989252156,0.827433
1365989312156,0.823483
1365989372156,0.830727
1365989432156,0.826778
1365989492156,0.825990
1365989552156,0.825390
1365989612156,0.824900
1365989672156,0.830396
1365989732156,0.827162
1365989792156,0.830028
1365989852156,0.833538
1365989912156,0.839717
1365989972156,0.834928
1365990032156,0.836764
1365990092156,0.832809
1365990152156,0.832846
1365990212156,0.828999
1365990272156,0.830573
1365990332156,0.829392
1365990392156,0.827479
1365990452156,0.826437
1365990512156,0.825989
1365990572156,0.823941
1365990632156,0.831680
1365990692156,0.831488
1365990752156,0.824685
1365990812156,0.829535
1365990872156,0.832192
1365990932156,0.833484
1365990992156,0.820422
1365991052156,0.828090
1365991112156,0.821661
1365991172156,0.819843
1365991232167,0.824072
1365991292167,0.825375
1365991352167,0.824844
1365991412167,0.829555
1365991472167,0.834003
1365991532167,0.827540
1365991592167,0.832980
1365991652167,0.834891
1365991712167,0.824712
1365991772167,0.830195
1365991832167,0.838305
1365991892167,0.824658
1365991952167,0.829023
1365992012167,0.827551
1365992072167,0.830913
1365992132167,0.828580
1365992192167,0.824333
1365992252167,0.830298
1365992312167,0.831650
1365992372167,0.831406
1365992432167,0.824958
1365992492167,0.834330
1365992552167,0.825700
1365992612167,0.825398
1365992672167,0.826474
1365992732167,0.818595
1365992792167,0.826141
1365992852167,0.827084
1365992912167,0.829286
1365992972167,0.829344
1365993032167,0.821798
1365993092167,0.828492
1365993152167,0.831510
1365993212167,0.822325
1365993272167,0.829810
1365993332167,0.826424
1365993392167,0.818392
1365993452167,0.831225
1365993512167,0.828943
1365993572167,0.834302
1365993632167,0.830761
1365993692167,0.819784
1365993752167,0.827545
1365993812167,0.823067
1365993872167,0.827863
1365993932167,0.825183
1365993992167,0.832281
1365994052167,0.831815
1365994112167,0.830094
1365994172167,0.824958
1365994232167,0.828069
1365994292167,0.836417
1365994352167,0.841351
1365994412167,0.836406
1365994472167,0.835674
1365994532167,0.839636
1365994592167,0.842041
1365994652167,0.845063
1365994712167,0.846181
1365994772167,0.841283
1365994832178,0.840583
1365994892178,0.834819
1365994952178,0.832121
1365995012178,0.840396
1365995072178,0.830596
1365995132178,0.834131
1365995192178,0.827174
1365995252178,0.837981
1365995312178,0.835714
1365995372178,0.830957
1365995432178,0.829026
1365995492178,0.830642
1365995552178,0.818801
1365995612178,0.826800
1365995672178,0.834583
1365995732178,0.827748
1365995792178,0.824107
1365995852178,0.838885
1365995912178,0.831608
1365995972178,0.836599
1365996032178,0.837068
1365996092178,0.834940
1365996152178,0.828108
1365996212178,0.839133
1365996272178,0.839914
1365996332178,0.833848
1365996392178,0.836309
1365996452178,0.843581
1365996512178,0.833469
1365996572178,0.845134
1365996632178,0.848695
1365996692178,0.843072
1365996752178,0.843215
1365996812178,0.842977
1365996872178,0.843674
1365996932178,0.852180
1365996992178,0.853444
1365997052178,0.843944
1365997112178,0.847219
1365997172178,0.844690
1365997232178,0.845497
1365997292178,0.849976
1365997352178,0.850996
1365997412178,0.852643
1365997472178,0.852066
1365997532178,0.853392
1365997592178,0.860062
1365997652178,0.855148
1365997712178,0.854383
1365997772178,0.860292
1365997832178,0.856092
1365997892178,0.851647
1365997952178,0.845924
1365998012178,0.854392
1365998072178,0.856249
1365998132178,0.853242
1365998192178,0.844183
1365998252178,0.851644
1365998312178,0.850065
1365998372178,0.848042
1365998432189,0.852309
1365998492189,0.852197
1365998552189,0.852623
1365998612189,0.853767
1365998672189,0.852271
1365998732189,0.850875
1365998792189,0.853991
1365998852189,0.847817
1365998912189,0.847479
1365998972189,0.849874
1365999032189,0.848385
1365999092189,0.849315
1365999152189,0.839621
1365999212189,0.846065
1365999272189,0.848614
1365999332189,0.847290
1365999392189,0.849468
1365999452189,0.845815
1365999512189,0.838354
1365999572189,0.841121
1365999632189,0.852023
1365999692189,0.842594
1365999752189,0.838734
1365999812189,0.836915
1365999872189,0.840945
1365999932189,0.847011
1365999992189,0.847741
1366000052189,0.842299
1366000112189,0.838458
1366000172189,0.842384
1366000232189,0.846388
1366000292189,0.839918
1366000352189,0.844653
1366000412189,0.840715
1366000472189,0.839008
1366000532189,0.837711
1366000592189,0.836700
1366000652189,0.836242
1366000712189,0.834573
1366000772189,0.835389
1366000832189,0.835216
1366000892189,0.834148
1366000952189,0.843726
1366001012189,0.828685
1366001072189,0.841051
1366001132189,0.833179
1366001192189,0.846220
1366001252189,0.835964
1366001312189,0.835811
1366001372189,0.836171
1366001432189,0.838590
1366001492189,0.842636
1366001552189,0.838418
1366001612189,0.838934
1366001672189,0.839417
1366001732189,0.836733
1366001792189,0.838593
1366001852189,0.832433
1366001912189,0.838248
1366001972189,0.838022
1366002032200,0.839491
1366002092200,0.833625
1366002152200,0.835268
1366002212200,0.841467
1366002272200,0.833304
1366002332200,0.843838
1366002392200,0.836354
1366002452200,0.843092
1366002512200,0.838195
1366002572200,0.837242
1366002632200,0.838983
1366002692200,0.838736
1366002752200,0.839161
1366002812200,0.830519
1366002872200,0.835258
1366002932200,0.837167
1366002992200,0.833219
1366003052200,0.842257
1366003112200,0.832824
1366003172200,0.842618
1366003232200,0.836518
1366003292200,0.837455
1366003352200,0.840090
1366003412200,0.839709
1366003472200,0.832439
1366003532200,0.830426
1366003592200,0.833324
1366003652200,0.835238
1366003712200,0.838190
1366003772200,0.828292
1366003832200,0.832607
1366003892200,0.835934
1366003952200,0.829186
1366004012200,0.831064
1366004072200,0.836240
1366004132200,0.820035
1366004192200,0.837553
1366004252200,0.833514
1366004312200,0.834724
1366004372200,0.828918
1366004432200,0.823281
1366004492200,0.823838
1366004552200,0.830796
1366004612200,0.820665
1366004672200,0.827331
1366004732200,0.835142
1366004792200,0.830733
1366004852200,0.837828
1366004912200,0.829359
1366004972200,0.829181
1366005032200,0.831218
1366005092200,0.823987
1366005152200,0.825401
1366005212200,0.836203
1366005272200,0.839519
1366005332200,0.840367
1366005392200,0.831223
1366005452200,0.833523
1366005512200,0.833234
1366005572200,0.836754
1366005632211,0.834336
1366005692211,0.839972
1366005752211,0.842313
1366005812211,0.843968
1366005872211,0.835812
1366005932211,0.836134
1366005992211,0.836232
1366006052211,0.838472
1366006112211,0.833240
1366006172211,0.838089
1366006232211,0.837869
1366006292211,0.843978
1366006352211,0.841456
1366006412211,0.844285
1366006472211,0.842001
1366006532211,0.838288
1366006592211,0.831986
1366006652211,0.836668
1366006712211,0.839317
1366006772211,0.847142
1366006832211,0.840871
1366006892211,0.839677
1366006952211,0.853003
1366007012211,0.851222
1366007072211,0.854539
1366007132211,0.854942
1366007192211,0.856963
1366007252211,0.853395
1366007312211,0.852700
1366007372211,0.854937
1366007432211,0.845277
1366007492211,0.839794
1366007552211,0.839788
1366007612211,0.840254
1366007672211,0.842564
1366007732211,0.844967
1366007792211,0.849609
1366007852211,0.848104
1366007912211,0.847817
1366007972211,0.864542
1366008032211,0.844408
1366008092211,0.859196
1366008152211,0.852867
1366008212211,0.852358
1366008272211,0.855091
1366008332211,0.852885
1366008392211,0.855749
1366008452211,0.847740
1366008512211,0.857947
1366008572211,0.851971
1366008632211,0.848881
1366008692211,0.844432
1366008752211,0.850571
1366008812211,0.853560
1366008872211,0.853416
1366008932211,0.853155
1366008992211,0.852815
1366009052211,0.847232
1366009112211,0.849569
1366009172211,0.846244
1366009232222,0.850235
1366009292222,0.847026
1366009352222,0.846983
1366009412222,0.838700
1366009472222,0.846440
1366009532222,0.848079
1366009592222,0.843820
1366009652222,0.841393
1366009712222,0.848263
1366009772222,0.842647
1366009832222,0.833933
1366009892222,0.839836
1366009952222,0.838177
1366010012222,0.838624
1366010072222,0.853825
1366010132222,0.842616
1366010192222,0.843264
1366010252222,0.851742
1366010312222,0.845807
1366010372222,0.845768
1366010432222,0.847789
1366010492222,0.852483
1366010552222,0.852773
1366010612222,0.848296
1366010672222,0.850331
1366010732222,0.851754
1366010792222,0.851815
1366010852222,0.843373
1366010912222,0.850308
1366010972222,0.858450
1366011032222,0.854888
1366011092222,0.850532
1366011152222,0.858880
1366011212222,0.856673
1366011272222,0.856544
1366011332222,0.856572
1366011392222,0.860158
1366011452222,0.863227
1366011512222,0.852006
1366011572222,0.858244
1366011632222,0.852006
1366011692222,0.850955
1366011752222,0.851324
1366011812222,0.852485
1366011872222,0.843009
1366011932222,0.845109
1366011992222,0.857313
1366012052222,0.848438
1366012112222,0.847452
1366012172222,0.854746
1366012232222,0.848371
1366012292222,0.851362
1366012352222,0.845373
1366012412222,0.844326
1366012472222,0.850761
1366012532222,0.855927
1366012592222,0.847595
1366012652222,0.845379
1366012712222,0.848147
1366012772222,0.856861
1366012832232,0.854004
1366012892232,0.850650
1366012952232,0.850919
1366013012232,0.840660
1366013072232,0.849906
1366013132232,0.849384
1366013192232,0.858403
1366013252233,0.850838
1366013312233,0.838050
1366013372232,0.843071
1366013432232,0.849922
1366013492232,0.847449
1366013552232,0.860772
1366013612233,0.841217
1366013672233,0.847852
1366013732233,0.841553
1366013792233,0.844135
1366013852233,0.846796
1366013912233,0.850841
1366013972233,0.845967
1366014032232,0.847466
1366014092232,0.843028
1366014152232,0.846654
1366014212232,0.845667
1366014272232,0.843601
1366014332232,0.839226
1366014392232,0.849785
1366014452232,0.837887
1366014512232,0.842058
1366014572232,0.835379
1366014632233,0.850529
1366014692233,0.844636
1366014752232,0.851196
1366014812232,0.860871
1366014872232,0.847426
1366014932233,0.848955
1366014992233,0.859876
1366015052233,0.858702
1366015112233,0.864565
1366015172233,0.868122
1366015232233,0.860856
1366015292233,0.864820
1366015352233,0.857542
1366015412232,0.867238
1366015472232,0.863978
1366015532232,0.872900
1366015592232,0.867046
1366015652232,0.859891
1366015712232,0.867566
1366015772232,0.868110
1366015832232,0.860540
1366015892232,0.869056
1366015952233,0.865296
1366016012233,0.864563
1366016072232,0.864177
1366016132232,0.870389
1366016192232,0.867024
1366016252232,0.865560
1366016312233,0.856142
1366016372233,0.866391
1366016432243,0.858578
1366016492243,0.859658
1366016552243,0.865205
1366016612243,0.860815
1366016672243,0.860610
1366016732243,0.869518
1366016792243,0.869344
1366016852243,0.867062
1366016912243,0.862000
1366016972243,0.873210
1366017032243,0.862400
1366017092243,0.865772
1366017152243,0.858882
1366017212243,0.862237
1366017272243,0.857456
1366017332243,0.857949
1366017392243,0.855384
1366017452243,0.852065
1366017512243,0.848664
1366017572243,0.852413
1366017632243,0.850127
1366017692243,0.855208
1366017752243,0.856126
1366017812243,0.864316
1366017872243,0.877238
1366017932243,0.883207
1366017992243,0.885597
1366018052243,0.885710
1366018112243,0.895667
1366018172243,0.885223
1366018232243,0.878087
1366018292243,0.876535
1366018352243,0.867735
1366018412243,0.877127
1366018472243,0.871611
1366018532243,0.864018
1366018592243,0.853424
1366018652243,0.862190
1366018712243,0.855026
1366018772243,0.858647
1366018832243,0.856104
1366018892243,0.847811
1366018952243,0.848639
1366019012243,0.844430
1366019072243,0.835763
1366019132243,0.844198
1366019192243,0.850961
1366019252243,0.841532
1366019312243,0.835842
1366019372243,0.842316
1366019432243,0.844825
1366019492243,0.849039
1366019552243,0.833684
1366019612243,0.839990
1366019672243,0.834207
1366019732243,0.841543
1366019792243,0.839752
1366019852243,0.835733
1366019912243,0.841515
1366019972243,0.846899
1366020032254,0.838275
1366020092254,0.842283
1366020152254,0.838519
1366020212254,0.842172
1366020272254,0.833832
1366020332254,0.840672
1366020392254,0.844962
1366020452254,0.836612
1366020512254,0.836373
1366020572254,0.834516
1366020632254,0.840351
1366020692254,0.838368
1366020752254,0.840696
1366020812254,0.838924
1366020872254,0.831505
1366020932254,0.838663
1366020992254,0.836803
1366021052254,0.832047
1366021112254,0.831382
1366021172254,0.840836
1366021232254,0.838885
1366021292254,0.833612
1366021352254,0.835715
1366021412254,0.832662
1366021472254,0.832698
1366021532254,0.831051
1366021592254,0.837445
1366021652254,0.827276
1366021712254,0.828649
1366021772254,0.832383
1366021832254,0.825038
1366021892254,0.837532
1366021952254,0.828157
1366022012254,0.832645
1366022072254,0.826880
1366022132254,0.831749
1366022192254,0.830281
1366022252254,0.830396
1366022312254,0.828615
1366022372254,0.833434
1366022432254,0.836542
1366022492254,0.824979
1366022552254,0.834666
1366022612254,0.833872
1366022672254,0.825257
1366022732254,0.834282
1366022792254,0.836745
1366022852254,0.831458
1366022912254,0.834900
1366022972254,0.830556
1366023032254,0.837458
1366023092254,0.825276
1366023152254,0.830092
1366023212254,0.821990
1366023272254,0.830026
1366023332254,0.820714
1366023392254,0.824102
1366023452254,0.831993
1366023512254,0.828492
1366023572254,0.828341
1366023632264,0.831989
1366023692264,0.830323
1366023752264,0.825415
1366023812264,0.825607
1366023872264,0.833530
1366023932264,0.833194
1366023992264,0.828957
1366024052264,0.819896
1366024112264,0.831095
1366024172264,0.835738
1366024232264,0.825652
1366024292264,0.823775
1366024352264,0.830368
1366024412264,0.827612
1366024472264,0.826615
1366024532264,0.830220
1366024592264,0.825129
1366024652264,0.826668
1366024712264,0.829405
1366024772264,0.826115
1366024832264,0.835054
1366024892264,0.833120
1366024952264,0.827733
1366025012264,0.827914
1366025072264,0.823717
1366025132264,0.828582
1366025192264,0.827823
1366025252264,0.830588
1366025312264,0.824835
1366025372264,0.822923
1366025432264,0.830062
1366025492264,0.829430
1366025552264,0.828771
1366025612264,0.832212
1366025672264,0.829617
1366025732264,0.827047
1366025792264,0.827497
1366025852264,0.834854
1366025912264,0.825094
1366025972264,0.827575
1366026032264,0.824167
1366026092264,0.816938
1366026152264,0.830971
1366026212264,0.822184
1366026272264,0.831633
1366026332264,0.832092
1366026392264,0.834537
1366026452264,0.826135
1366026512264,0.823668
1366026572264,0.827529
1366026632264,0.821713
1366026692264,0.824493
1366026752264,0.828842
1366026812264,0.820267
1366026872264,0.825048
1366026932264,0.825135
1366026992264,0.828652
1366027052264,0.832821
1366027112264,0.825459
1366027172264,0.822991
1366027232275,0.825171
1366027292275,0.829358
1366027352275,0.815974
1366027412275,0.829397
1366027472275,0.824032
1366027532275,0.824126
1366027592275,0.832326
1366027652275,0.830748
1366027712275,0.830561
1366027772275,0.840481
1366027832275,0.827350
1366027892275,0.834043
1366027952275,0.829736
1366028012275,0.834600
1366028072275,0.828635
1366028132275,0.829501
1366028192275,0.833520
1366028252275,0.827397
1366028312275,0.836385
1366028372275,0.824221
1366028432275,0.826739
1366028492275,0.832343
1366028552275,0.826261
1366028612275,0.828078
1366028672275,0.824740
1366028732275,0.828619
1366028792275,0.828184
1366028852275,0.820645
1366028912275,0.835618
1366028972275,0.837185
1366029032275,0.832664
1366029092275,0.833246
1366029152275,0.825939
1366029212275,0.824855
1366029272275,0.827720
1366029332275,0.829938
1366029392275,0.831054
1366029452275,0.831114
1366029512275,0.825311
1366029572275,0.826268
1366029632275,0.829627
1366029692275,0.834017
1366029752275,0.825078
1366029812275,0.834847
1366029872275,0.837265
1366029932275,0.832036
1366029992275,0.832980
1366030052275,0.830443
1366030112275,0.833443
1366030172275,0.831926
1366030232275,0.835665
1366030292275,0.837050
1366030352275,0.841690
1366030412275,0.835576
1366030472275,0.840457
1366030532275,0.835818
1366030592275,0.832710
1366030652275,0.838671
1366030712275,0.840896
1366030772275,0.830061
1366030832269,0.832254
1366030892269,0.834064
1366030952269,0.835246
1366031012269,0.833856
1366031072269,0.833718
1366031132269,0.828178
1366031192269,0.838094
1366031252269,0.832513
1366031312269,0.897978
1366031372269,0.829692
1366031432269,0.836650
1366031492269,0.835483
1366031552269,0.834106
1366031612269,0.832523
1366031672269,0.831657
1366031732269,0.828639
1366031792269,0.839167
1366031852269,0.822726
1366031912269,0.831915
1366031972269,0.837150
1366032032269,0.826963
1366032092269,0.826752
1366032152269,0.831574
1366032212269,0.827462
1366032272269,0.838731
1366032332269,0.840365
1366032392269,0.828919
1366032452269,0.839187
1366032512269,0.834641
1366032572269,0.835802
1366032632269,0.842685
1366032692269,0.836533
1366032752269,0.835543
1366032812269,0.842567
1366032872269,0.844991
1366032932269,0.839010
1366032992269,0.837309
1366033052269,0.848918
1366033112269,0.838325
1366033172269,0.843458
1366033232269,0.843282
1366033292269,0.841015
1366033352269,0.836936
1366033412269,0.836202
1366033472269,0.841784
1366033532269,0.842558
1366033592269,0.844980
1366033652269,0.834574
1366033712269,0.843258
1366033772269,0.839144
1366033832269,0.843424
1366033892269,0.838773
1366033952269,0.841651
1366034012269,0.846684
1366034072269,0.840490
1366034132269,0.845728
1366034192269,0.841245
1366034252269,0.843930
1366034312269,0.841411
1366034372269,0.850157
1366034432279,0.855704
1366034492279,0.851837
1366034552279,0.874405
1366034612279,0.895995
1366034672279,0.887314
1366034732279,0.883204
1366034792279,0.877454
1366034852279,0.868459
1366034912279,0.865081
1366034972279,0.866394
1366035032279,0.868559
1366035092279,0.860324
1366035152279,0.858283
1366035212279,0.851422
1366035272279,0.859304
1366035332279,0.856744
1366035392279,0.865975
1366035452279,0.859294
1366035512279,0.851132
1366035572279,0.859452
1366035632279,0.857229
1366035692279,0.858386
1366035752279,0.856932
1366035812279,0.848154
1366035872279,0.854298
1366035932279,0.857152
1366035992279,0.855566
1366036052279,0.861120
1366036112279,0.863617
1366036172279,0.855281
1366036232279,0.860073
1366036292279,0.867107
1366036352279,0.864115
1366036412279,0.857234
1366036472279,0.859151
1366036532279,0.861204
1366036592279,0.853685
1366036652279,0.859187
1366036712279,0.852254
1366036772279,0.853153
1366036832279,0.853687
1366036892279,0.850728
1366036952279,0.855938
1366037012279,0.851318
1366037072279,0.854913
1366037132279,0.846421
1366037192279,0.857163
1366037252279,0.855209
1366037312279,0.851044
1366037372279,0.853676
1366037432279,0.847246
1366037492279,0.852934
1366037552279,0.842445
1366037612279,0.847529
1366037672279,0.851617
1366037732279,0.854262
1366037792279,0.853959
1366037852279,0.845339
1366037912279,0.845708
1366037972279,0.845089
1366038032289,0.845646
1366038092289,0.843526
1366038152289,0.840605
1366038212289,0.847214
1366038272289,0.844339
1366038332289,0.850068
1366038392289,0.845684
1366038452289,0.845839
1366038512289,0.847592
1366038572289,0.850233
1366038632289,0.846901
1366038692289,0.845954
1366038752289,0.847534
1366038812289,0.837161
1366038872289,0.839738
1366038932289,0.837480
1366038992289,0.852370
1366039052289,0.847314
1366039112289,0.839261
1366039172289,0.839999
1366039232289,0.839477
1366039292289,0.843666
1366039352289,0.844318
1366039412289,0.842507
1366039472289,0.842061
1366039532289,0.839909
1366039592289,0.838138
1366039652289,0.842225
1366039712289,0.840550
1366039772289,0.834882
1366039832289,0.842369
1366039892289,0.841785
1366039952289,0.833732
1366040012289,0.840576
1366040072289,0.839731
1366040132289,0.838071
1366040192289,0.840056
1366040252289,0.834509
1366040312289,0.835116
1366040372289,0.839356
1366040432289,0.837914
1366040492289,0.840910
1366040552289,0.845444
1366040612289,0.834506
1366040672289,0.843468
1366040732289,0.841726
1366040792289,0.846650
1366040852289,0.842698
1366040912289,0.847624
1366040972289,0.834702
1366041032289,0.837724
1366041092289,0.841900
1366041152289,0.840475
1366041212289,0.846268
1366041272289,0.840183
1366041332289,0.841749
1366041392289,0.838646
1366041452289,0.844956
1366041512289,0.841125
1366041572289,0.853443
1366041632299,0.850244
1366041692299,0.840063
1366041752299,0.842308
1366041812299,0.845028
1366041872299,0.840818
1366041932299,0.839350
1366041992299,0.845264
1366042052299,0.853780
1366042112299,0.857851
1366042172299,0.857378
1366042232299,0.862384
1366042292299,0.866581
1366042352299,0.863676
1366042412299,0.862494
1366042472299,0.847832
1366042532299,0.850739
1366042592299,0.859023
1366042652299,0.851481
1366042712299,0.859941
1366042772299,0.854544
1366042832299,0.855103
1366042892299,0.858113
1366042952299,0.848302
1366043012299,0.864107
1366043072299,0.856007
1366043132299,0.852686
1366043192299,0.853663
1366043252299,0.863236
1366043312299,0.851528
1366043372299,0.861521
1366043432299,0.859852
1366043492299,0.861808
1366043552299,0.867700
1366043612299,0.862869
1366043672299,0.858343
1366043732299,0.853035
1366043792299,0.857854
1366043852299,0.864507
1366043912299,0.851704
1366043972299,0.860128
1366044032299,0.860863
1366044092299,0.854217
1366044152299,0.854271
1366044212299,0.860294
1366044272299,0.852073
1366044332299,0.848369
1366044392299,0.852690
1366044452299,0.843755
1366044512299,0.843367
1366044572299,0.843614
1366044632299,0.841263
1366044692299,0.847776
1366044752299,0.846920
1366044812299,0.848568
1366044872299,0.846626
1366044932299,0.840361
1366044992299,0.839484
1366045052299,0.846651
1366045112299,0.840497
1366045172299,0.841620
1366045232309,0.843941
1366045292309,0.838580
1366045352309,0.846237
1366045412309,0.847992
1366045472309,0.841806
1366045532309,0.838222
1366045592309,0.838050
1366045652309,0.841673
1366045712309,0.842245
1366045772309,0.839741
1366045832309,0.843770
1366045892309,0.840183
1366045952309,0.837124
1366046012309,0.838095
1366046072309,0.843126
1366046132309,0.849945
1366046192309,0.844480
1366046252309,0.836355
1366046312309,0.841122
1366046372309,0.836206
1366046432309,0.840607
1366046492309,0.832141
1366046552309,0.840843
1366046612309,0.837997
1366046672309,0.839154
1366046732309,0.835439
1366046792309,0.846359
1366046852309,0.839743
1366046912309,0.833980
1366046972309,0.837981
1366047032309,0.848672